This demonstration page uses our WeatherBlox Daily Observations layout. Learn more.

Left ArrowRight Arrow

34.74481, -87.66753

Hourly Observations for April 5, 2015

Temp ( °F °C ) Dew Point ( °F °C ) Humidity (%) Winds ( mph kmh ) Pressure ( in mb ) Visibility ( mi km ) Precip ( " mm )
12:53 am 00:53 Clear 46 7.8 32 0 58 58 ENE 6 9 30.28 1025 10 16 0.00 0.00
1:53 am 01:53 Clear 44 6.7 33 0.6 65 65 Calm 30.26 1025 10 16 0.00 0.00
2:53 am 02:53 Clear 41 5 35 1.7 79 79 Calm 30.25 1024 N/A 0.00 0.00
3:53 am 03:53 Clear 41 5 30 -1.1 65 65 ENE 3 6 30.24 1024 N/A 0.00 0.00
4:53 am 04:53 Clear 37 2.8 33 0.6 86 86 Calm 30.23 1024 N/A 0.00 0.00
5:53 am 05:53 Clear 38 3.3 34 1.1 86 86 Calm 30.25 1024 N/A 0.00 0.00
6:53 am 06:53 Sunny 40 4.4 37 2.8 89 89 Calm 30.26 1025 N/A 0.00 0.00
7:53 am 07:53 Sunny 46 7.8 38 3.3 73 73 Calm 30.26 1025 N/A 0.00 0.00
8:53 am 08:53 Sunny 50 10 35 1.7 57 57 ESE 7 11 30.25 1024 10 16 0.00 0.00
9:53 am 09:53 Sunny 54 12.2 37 2.8 53 53 ESE 7 11 30.25 1024 10 16 0.00 0.00
10:53 am 10:53 Sunny 58 14.4 36 2.2 44 44 ESE 7 11 30.22 1023 10 16 0.00 0.00
11:53 am 11:53 Sunny 64 17.8 35 1.7 34 34 S 7 11 30.21 1023 10 16 0.00 0.00
12:53 pm 12:53 Sunny 66 18.9 36 2.2 33 33 SSE 3 6 30.19 1022 10 16 0.00 0.00
1:53 pm 13:53 Sunny 67 19.4 37 2.8 33 33 S 10 17 30.16 1021 10 16 0.00 0.00
2:53 pm 14:53 Sunny 66 18.9 39 3.9 37 37 SSW 10 17 30.17 1022 10 16 0.00 0.00
3:53 pm 15:53 Sunny 65 18.3 41 5 42 42 SSW 6 9 30.14 1021 10 16 0.00 0.00
4:53 pm 16:53 Sunny 65 18.3 44 6.7 47 47 WSW 3 6 30.15 1021 10 16 0.00 0.00
5:53 pm 17:53 Sunny 64 17.8 49 9.4 58 58 ESE 5 7 30.13 1020 10 16 0.00 0.00
6:53 pm 18:53 Sunny 61 16.1 46 7.8 58 58 E 3 6 30.13 1020 10 16 0.00 0.00
7:53 pm 19:53 Mostly Cloudy 60 15.6 45 7.2 58 58 ESE 5 7 30.11 1020 10 16 0.00 0.00
8:53 pm 20:53 Cloudy 60 15.6 45 7.2 58 58 Calm 30.11 1020 10 16 0.00 0.00
9:53 pm 21:53 Cloudy 60 15.6 46 7.8 60 60 ESE 3 6 30.12 1020 10 16 0.00 0.00
10:53 pm 22:53 Cloudy 58 14.4 48 8.9 70 70 ESE 3 6 30.11 1020 10 16 0.00 0.00
11:53 pm 23:53 Mostly Cloudy 58 14.4 46 7.8 65 65 Calm 30.11 1020 10 16 0.00 0.00

Powered by AerisWeather